Hagerstown, MD

4:13 PM EDT on September 19, 2017 (GMT -0400)
Hagerstown Regional-Henson

Weather History for KHGR - April, 2014

Change the Weather History Date:

Tuesday, April 15, 2014

  Actual Average Record
Temperature  
Mean Temperature 55 °F 53 °F  
Max Temperature 68 °F 63 °F 82 °F (2003)
Min Temperature 41 °F 43 °F 34 °F (2008)
Degree Days  
Heating Degree Days 10 13  
Month to date heating degree days 173 227  
Since 1 July heating degree days 5047 4859  
Cooling Degree Days 0 0  
Month to date cooling degree days 10 0  
Year to date cooling degree days 10 1  
Growing Degree Days 1 (Base 50)    
Moisture  
Dew Point 47 °F    
Average Humidity 85    
Maximum Humidity 93    
Minimum Humidity 76    
Precipitation  
Precipitation 0.58 in 0.12 in 1.76 in (2007)
Month to date precipitation 1.08 1.87  
Year to date precipitation 6.53 10.48  
Sea Level Pressure  
Sea Level Pressure 29.71 in    
Wind  
Wind Speed 15 mph (WSW)    
Max Wind Speed 30 mph    
Max Gust Speed 37 mph    
Visibility 8 miles    
Events Rain , Snow    
T = Trace of Precipitation, MM = Missing Value Source: NWS Daily Summary

Daily Weather History Graph

Daily Weather History Graph

Search for Another Location

Airport or City:

Trip Planner

Search our weather history database for the weather conditions in past years. The results will help you decide how hot, cold, wet, or windy it might be!

Date:

Astronomy

Apr. 15, 2014 Rise Set
Actual Time 6:33 AM EDT 7:49 PM EDT
Civil Twilight 6:05 AM EDT 8:17 PM EDT
Nautical Twilight 5:32 AM EDT 8:50 PM EDT
Astronomical Twilight 4:57 AM EDT 9:25 PM EDT
Moon 8:27 PM EDT (4/15) 6:40 AM EDT (4/15)
Length of Visible Light 14h 11m
Length of Day
13h 15m
Full, 100% of the Moon is Illuminated
Apr 15
Full
Apr 22
Last Quarter
Apr 29
New
May 6
First Quarter
May 14
Full

Hourly Weather History & Observations

Time (EDT) Temp. Windchill Dew Point Humidity Pressure Visibility Wind Dir Wind Speed Gust Speed Precip Events Conditions
12:53 AM 68.0 °F - 52.0 °F 56% 29.75 in 10.0 mi South 15.0 mph - 0.00 in   Overcast
1:53 AM 64.9 °F - 57.0 °F 75% 29.73 in 10.0 mi South 10.4 mph - 0.00 in Rain Light Rain
2:53 AM 66.0 °F - 57.0 °F 73% 29.70 in 10.0 mi South 16.1 mph - 0.01 in   Overcast
3:53 AM 64.9 °F - 59.0 °F 81% 29.67 in 10.0 mi South 10.4 mph - 0.01 in Rain Light Rain
4:39 AM 64.9 °F - 59.0 °F 81% 29.63 in 10.0 mi South 11.5 mph - 0.00 in   Overcast
4:53 AM 64.0 °F - 59.0 °F 84% 29.64 in 10.0 mi South 12.7 mph - 0.00 in   Overcast
5:36 AM 63.0 °F - 61.0 °F 93% 29.62 in 4.0 mi South 11.5 mph - 0.12 in Rain Rain
5:53 AM 63.0 °F - 61.0 °F 93% 29.64 in 5.0 mi South 11.5 mph - 0.16 in Rain Rain
6:17 AM 63.0 °F - 61.0 °F 93% 29.60 in 6.0 mi SSE 15.0 mph - 0.05 in Rain Light Rain
6:31 AM 63.0 °F - 61.0 °F 93% 29.59 in 6.0 mi SSE 15.0 mph - 0.08 in Rain Light Rain
6:49 AM 62.6 °F - 60.8 °F 94% 29.59 in 6.0 mi South 11.5 mph - 0.12 in Rain Light Rain
6:53 AM 63.0 °F - 61.0 °F 93% 29.60 in 6.0 mi South 11.5 mph - 0.13 in Rain Light Rain
7:02 AM 63.0 °F - 61.0 °F 93% 29.58 in 4.0 mi South 10.4 mph - 0.01 in Rain Light Rain
7:53 AM 63.0 °F - 61.0 °F 93% 29.60 in 4.0 mi South 12.7 mph - 0.06 in Rain Light Rain
8:00 AM 63.0 °F - 61.0 °F 93% 29.58 in 7.0 mi South 13.8 mph - 0.01 in Rain Light Rain
8:09 AM 63.0 °F - 61.0 °F 93% 29.57 in 4.0 mi South 13.8 mph - 0.02 in Rain Light Rain
8:53 AM 63.0 °F - 61.0 °F 93% 29.59 in 4.0 mi South 11.5 mph - 0.05 in Rain Light Rain
9:36 AM 62.1 °F - 60.1 °F 93% 29.55 in 10.0 mi South 10.4 mph - 0.02 in Rain Light Rain
9:53 AM 63.0 °F - 61.0 °F 93% 29.56 in 10.0 mi South 10.4 mph - 0.03 in Rain Light Rain
10:00 AM 63.0 °F - 61.0 °F 93% 29.54 in 10.0 mi South 10.4 mph - 0.00 in Rain Light Rain
10:53 AM 64.0 °F - 61.0 °F 90% 29.56 in 10.0 mi South 10.4 mph - 0.00 in   Mostly Cloudy
11:39 AM 57.0 °F - 54.0 °F 89% 29.57 in 3.0 mi WNW 24.2 mph 35.7 mph 0.03 in Rain Rain
11:48 AM 53.6 °F - 50.0 °F 88% 29.59 in 10.0 mi WNW 25.3 mph 33.4 mph 0.03 in Rain Light Rain
11:49 AM 53.1 °F - 48.9 °F 86% 29.61 in 10.0 mi NW 23.0 mph 33.4 mph 0.03 in Rain Light Rain
11:52 AM 53.1 °F - 48.9 °F 86% 29.59 in 8.0 mi NW 23.0 mph 33.4 mph 0.00 in Rain Light Rain
12:07 PM 52.0 °F - 46.9 °F 83% 29.60 in 10.0 mi WNW 23.0 mph 33.4 mph 0.00 in   Overcast
12:53 PM 48.9 °F - 42.1 °F 77% 29.69 in 10.0 mi WNW 16.1 mph 27.6 mph 0.00 in   Overcast
1:02 PM 48.0 °F - 41.0 °F 77% 29.67 in 10.0 mi NNW 20.7 mph 25.3 mph N/A   Overcast
1:30 PM 45.0 °F 37.4 °F 41.0 °F 86% 29.69 in 2.5 mi NW 18.4 mph 24.2 mph 0.03 in Rain Rain
1:46 PM 44.1 °F 36.2 °F 41.0 °F 89% 29.69 in 4.0 mi NW 18.4 mph 29.9 mph 0.05 in Rain Light Rain
1:53 PM 45.0 °F 38.2 °F 41.0 °F 86% 29.72 in 8.0 mi NW 15.0 mph - 0.06 in Rain Light Rain
2:53 PM 44.1 °F 34.6 °F 37.0 °F 76% 29.75 in 10.0 mi NW 26.5 mph 32.2 mph 0.04 in Rain Light Rain
3:53 PM 43.0 °F 34.5 °F 35.1 °F 74% 29.78 in 10.0 mi NW 19.6 mph - 0.00 in Rain Light Rain
4:53 PM 41.0 °F 32.8 °F 34.0 °F 76% 29.81 in 10.0 mi NW 16.1 mph - 0.00 in Rain Light Rain
5:53 PM 39.9 °F 30.2 °F 33.1 °F 77% 29.88 in 10.0 mi WNW 20.7 mph 31.1 mph 0.00 in Rain Light Rain
6:08 PM 37.0 °F 25.4 °F 30.9 °F 79% 29.84 in 7.0 mi NW 25.3 mph 44.9 mph 0.01 in Snow Light Snow
6:51 PM 37.4 °F 29.3 °F 32.0 °F 81% 29.86 in 10.0 mi NNW 12.7 mph - 0.01 in   Overcast
6:53 PM 37.9 °F 28.2 °F 32.0 °F 79% 29.89 in 10.0 mi NNW 18.4 mph 21.9 mph 0.01 in   Overcast
7:40 PM 37.0 °F 27.0 °F 30.0 °F 76% 29.89 in 6.0 mi NNW 18.4 mph 31.1 mph 0.00 in Snow Light Snow
7:50 PM 37.4 °F 26.9 °F 28.4 °F 70% 29.89 in 10.0 mi NNW 20.7 mph 28.8 mph 0.00 in   Overcast
7:53 PM 37.9 °F 27.9 °F 28.0 °F 68% 29.92 in 10.0 mi NNW 19.6 mph - 0.00 in   Overcast
8:53 PM 36.0 °F 25.3 °F 25.0 °F 64% 30.01 in 10.0 mi NW 19.6 mph 32.2 mph N/A   Overcast
9:53 PM 35.1 °F 22.5 °F 21.9 °F 59% 30.05 in 10.0 mi NW 26.5 mph 32.2 mph N/A   Mostly Cloudy
10:53 PM 34.0 °F 21.0 °F 19.9 °F 56% 30.07 in 10.0 mi NW 26.5 mph 34.5 mph N/A   Overcast
11:53 PM 33.1 °F 19.8 °F 17.1 °F 52% 30.12 in 10.0 mi NNW 26.5 mph 39.1 mph N/A   Overcast